Tracking 19170 objects as of 23-May-2018
HD Live streaming from Space Station
objects crossing your sky now

FENGYUN 1C DEB

Track FENGYUN 1C DEB now!
10-day predictions


NORAD ID: 30228
Int'l Code: 1999-025WM
Perigee: 585.1 km
Apogee: 651.9 km
Inclination: 99.0 °
Period: 96.9 minutes
Semi major axis: 6989 km
RCS: 0.0424 m2 (small)
Launch date: May 10, 1999
Source: People's Republic of China (PRC)
Launch site: Taiyaun Space Center, China (TSC)

Note: This is SATELLITE DEBRIS
aabbcc
Your satellite tracking list
Your tracking list is empty




NASA's NSSDC Master Catalog

Two Line Element Set (TLE):
1 30228U 99025WM  18142.87319176  .00003920  00000-0  45030-3 0  9997
2 30228  98.9788 121.7399 0047813  97.4269 263.2380 14.85714507601506
Source of the keplerian elements: AFSPC